{"data":{"norad_id":62120,"intl_designator":"2024-222G","name":"STARLINK-32548","alt_names":[],"object_type":"PAYLOAD","status":"ACTIVE","operator":null,"country":"US","launch_date":"2024-11-27","launch_site_code":"AFETR","launch_vehicle":null,"mission":null,"orbit_class":"UNKNOWN","rcs_meters":null,"size_class":null,"mass_kg":null,"dimensions":null,"purposes":["comms"],"wikipedia_slug":null,"has_3d_model":false,"image_url":null,"decayed_at":null,"tle_current":{"epoch":"2026-09-20T20:32:22.556832Z","epoch_age_seconds":151592,"freshness":"FRESH","line1":"1 62120U 24222G   26263.85581663  .00011836  00000+0  43883-3 0  9991","line2":"2 62120  42.9974 114.2871 0001414 279.7962  80.2730 15.27587084102600","mean_motion":15.27587084,"eccentricity":0.0001414,"inclination_deg":42.9974,"raan_deg":114.2871,"arg_perigee_deg":279.7962,"mean_anomaly_deg":80.273,"bstar":0.00043883,"rev_number":10260,"period_min":94.266311563027,"perigee_km":482.05771536256,"apogee_km":483.99805279178,"semimajor_km":6861.1648840772,"source":"CELESTRAK","updated_at":"2026-09-22T09:00:49.524872Z"}}}